Location: Argonnex
(45.9500°N, 6.1333°E)
Time: 08:21:33
(UTC+00:00)

Cosmos 2266 Rocket - Pass Details

Date: 27 September 2023
Orbit: 933 x 1008 km, 82.9° (Epoch: 10 December)

Event Time Altitude Azimuth Distance (km) Brightness Sun altitude
Exits shadow 01:03:25 - 104° (ESE) 3,023 6.7 -40.7°
Reaches altitude 10° 01:05:31 10° 87° (E) 2,754 6.7 -40.5°
Maximum altitude 01:06:51 11° 74° (ENE) 2,708 6.7 -40.4°
Drops below altitude 10° 01:08:12 10° 62° (ENE) 2,767 6.9 -40.3°
Sets 01:13:15 0° 28° (NNE) 3,738 7.9 -39.8°
